Location: Chuathbaluk
(61.5726°N, 159.2454°W)
Time: 22:44:48
(UTC+00:00)

Explorer 7 - Pass Details

Date: 09 December 2021
Orbit: 483 x 674 km, 50.3° (Epoch: 21 January)

Event Time Altitude Azimuth Distance (km) Brightness Sun altitude
Exits shadow 16:51:04 10° 221° (SW) 1,866 9.3 -17.5°
Maximum altitude 16:53:54 18° 179° (S) 1,411 9.1 -17.2°
Drops below altitude 10° 16:56:39 10° 136° (SE) 1,798 10.4 -16.9°
Sets 16:59:22 0° 117° (ESE) 2,652 12.0 -16.6°
